Weather History for Ponca City, OK

Change the Weather History Date:

Wednesday, July 24, 2013

  Actual Average Record
Temperature  
Mean Temperature 78 °F -  
Max Temperature 90 °F 95 °F 109 °F (2011)
Min Temperature 66 °F 70 °F 57 °F (1970)
Cooling Degree Days 13    
Growing Degree Days 28 (Base 50)    
Moisture  
Dew Point 67 °F    
Average Humidity 78    
Maximum Humidity 94    
Minimum Humidity 50    
Precipitation  
Precipitation 1.10 in - - ()
Sea Level Pressure  
Sea Level Pressure 29.94 in    
Wind  
Wind Speed 14 mph (NE)    
Max Wind Speed 31 mph    
Max Gust Speed 51 mph    
Visibility 9 miles    
Events Rain , Thunderstorm    
Averages and records for this station are not official NWS values.
T = Trace of Precipitation, MM = Missing Value Source: NWS Daily Summary

Daily Weather History Graph

Daily Weather History Graph

Search for Another Location

Airport:

Trip Planner

Search our weather history database for the weather conditions in past years. The results will help you decide how hot, cold, wet, or windy it might be!

Date:

Astronomy

Jul. 24, 2013 Rise Set
Actual Time 6:28 AM CDT 8:41 PM CDT
Civil Twilight 5:58 AM CDT 9:10 PM CDT
Nautical Twilight 5:23 AM CDT 9:46 PM CDT
Astronomical Twilight 4:44 AM CDT 10:24 PM CDT
Moon 9:54 PM CDT (7/24) 8:44 AM CDT (7/24)
Length of Visible Light 15h 11m
Length of Day
14h 13m
Waning Gibbous, 94% of the Moon is Illuminated
Jul 24
Waning Gibbous
Jul 29
Last Quarter
Aug 6
New
Aug 14
First Quarter
Aug 20
Full

Hourly Weather History & Observations

Time (CDT) Temp. Heat Index Dew Point Humidity Pressure Visibility Wind Dir Wind Speed Gust Speed Precip Events Conditions
12:15 AM 71.6 °F - 66.2 °F 83% 29.98 in 9.0 mi North 23.0 mph 32.2 mph 0.01 in Rain , Thunderstorm Light Rain
12:22 AM 69.8 °F - 66.2 °F 88% 30.01 in 1.8 mi North 31.1 mph 42.6 mph 0.21 in Rain , Thunderstorm Heavy Thunderstorms and Rain
12:33 AM 66.2 °F - 64.4 °F 94% 29.94 in 1.0 mi ENE 31.1 mph 50.6 mph 0.54 in Rain , Thunderstorm Heavy Thunderstorms and Rain
12:37 AM 66.2 °F - 64.4 °F 94% 29.93 in 2.5 mi ENE 25.3 mph 48.3 mph 0.54 in Rain , Thunderstorm Thunderstorms and Rain
12:41 AM 66.2 °F - 64.4 °F 94% 29.92 in 6.0 mi ENE 21.9 mph 41.4 mph 0.54 in Rain , Thunderstorm Light Thunderstorms and Rain
12:53 AM 69.1 °F - 63.0 °F 81% 29.88 in 10.0 mi NE 11.5 mph - 0.55 in Rain , Thunderstorm Light Rain
1:37 AM 69.8 °F - 64.4 °F 83% 29.88 in 10.0 mi ENE 5.8 mph - 0.00 in   Mostly Cloudy
1:53 AM 70.0 °F - 64.9 °F 84% 29.84 in 10.0 mi NW 3.5 mph - 0.00 in   Scattered Clouds
2:18 AM 69.8 °F - 66.2 °F 88% 29.90 in 10.0 mi NNE 15.0 mph 18.4 mph N/A Thunderstorm Mostly Cloudy
2:32 AM 69.8 °F - 66.2 °F 88% 29.88 in 10.0 mi Calm Calm - N/A Thunderstorm Mostly Cloudy
2:53 AM 72.0 °F - 64.9 °F 78% 29.83 in 10.0 mi East 9.2 mph - 0.00 in Rain , Thunderstorm Light Thunderstorms and Rain
3:53 AM 70.0 °F - 66.9 °F 90% 29.87 in 4.0 mi SE 11.5 mph - 0.35 in Rain , Thunderstorm Heavy Thunderstorms and Rain
4:11 AM 69.8 °F - 68.0 °F 94% 29.95 in 10.0 mi ESE 6.9 mph - 0.02 in Rain , Thunderstorm Light Thunderstorms and Rain
4:50 AM 69.8 °F - 66.2 °F 88% 29.98 in 10.0 mi SSW 6.9 mph - 0.20 in Rain , Thunderstorm Light Thunderstorms and Rain
4:53 AM 69.1 °F - 66.9 °F 93% 29.94 in 10.0 mi SSW 5.8 mph - 0.20 in Rain , Thunderstorm Light Thunderstorms and Rain
5:11 AM 69.8 °F - 66.2 °F 88% 29.97 in 10.0 mi South 9.2 mph - 0.00 in   Mostly Cloudy
5:53 AM 68.0 °F - 66.0 °F 93% 29.95 in 10.0 mi Variable 3.5 mph - 0.00 in   Mostly Cloudy
6:53 AM 69.1 °F - 66.0 °F 90% 29.94 in 10.0 mi Calm Calm - N/A   Partly Cloudy
7:53 AM 69.1 °F - 66.9 °F 93% 29.96 in 10.0 mi North 3.5 mph - N/A   Clear
8:53 AM 72.0 °F - 66.9 °F 84% 29.97 in 10.0 mi WNW 4.6 mph - N/A   Clear
9:53 AM 75.0 °F - 68.0 °F 79% 29.96 in 10.0 mi NNW 10.4 mph - N/A   Scattered Clouds
10:53 AM 79.0 °F - 69.1 °F 72% 29.99 in 10.0 mi North 10.4 mph - N/A   Partly Cloudy
11:53 AM 81.0 °F 83.8 °F 68.0 °F 65% 29.98 in 10.0 mi North 11.5 mph - N/A   Clear
12:53 PM 84.0 °F 87.8 °F 69.1 °F 61% 29.98 in 10.0 mi North 12.7 mph 19.6 mph N/A   Clear
1:53 PM 86.0 °F 90.1 °F 69.1 °F 57% 29.97 in 10.0 mi North 10.4 mph - N/A   Clear
2:53 PM 88.0 °F 92.9 °F 70.0 °F 55% 29.96 in 10.0 mi NNE 6.9 mph - N/A   Partly Cloudy
3:53 PM 90.0 °F 94.5 °F 69.1 °F 50% 29.95 in 10.0 mi ENE 5.8 mph - N/A   Scattered Clouds
4:53 PM 89.1 °F 93.7 °F 69.1 °F 52% 29.94 in 10.0 mi ENE 10.4 mph - N/A   Partly Cloudy
5:53 PM 88.0 °F 92.9 °F 70.0 °F 55% 29.93 in 10.0 mi ESE 10.4 mph - N/A   Scattered Clouds
6:53 PM 87.1 °F 91.3 °F 69.1 °F 55% 29.93 in 10.0 mi ESE 10.4 mph - N/A   Clear
7:53 PM 84.0 °F 87.8 °F 69.1 °F 61% 29.95 in 10.0 mi ESE 6.9 mph - N/A   Clear
8:53 PM 81.0 °F 84.4 °F 70.0 °F 69% 29.95 in 10.0 mi ESE 5.8 mph - N/A   Clear
9:53 PM 75.9 °F - 70.0 °F 82% 29.97 in 10.0 mi SE 5.8 mph - N/A   Clear
10:53 PM 78.1 °F - 69.1 °F 74% 29.99 in 10.0 mi Calm Calm - N/A   Clear
11:53 PM 78.1 °F - 69.1 °F 74% 30.00 in 10.0 mi Calm Calm - N/A   Clear